Theta_e
312 312 313 313 314 315 316 317 318 318 318 318 318 318 318 319 318 319 319 319 319 319 320 320 320 318 316 317 319 318 315 293 295 295 294 298 314 320 320 320 320 319 315 301 301 299 294 294 294 294 295 293 291 292 292 294 291 289 283 281 282 280 283 286 285 287 289 286 287 288 288 289 288 290 293 294 292 292 292 292 294 296 296 297 298 298 298 299
312 312 312 313 314 315 316 317 317 318 318 318 318 318 318 318 318 319 319 319 319 319 320 320 319 316 316 317 316 315 301 294 293 293 294 308 317 319 320 320 319 317 309 299 296 296 293 292 293 293 291 289 291 291 293 291 292 286 281 284 282 280 286 288 288 287 287 287 286 287 288 288 287 288 291 288 288 289 288 290 292 291 293 295 296 296 297 297
312 312 313 313 315 316 316 316 317 317 317 317 317 318 318 318 319 318 319 318 318 319 320 319 318 315 316 317 318 315 301 292 291 290 295 313 317 318 319 319 317 315 299 296 296 296 295 293 292 292 290 291 290 288 292 289 292 287 286 283 284 288 288 286 286 286 287 288 286 287 287 287 287 288 291 288 287 288 286 287 289 289 290 292 293 295 295 295
312 312 313 314 315 315 316 316 317 317 317 317 317 317 318 318 318 319 318 318 318 319 320 320 318 314 314 314 314 297 293 288 287 290 298 313 317 318 317 318 316 308 298 298 296 298 297 294 292 292 289 289 287 290 288 288 287 287 285 281 285 287 283 286 286 285 287 288 287 286 287 286 287 288 288 288 286 286 287 290 289 288 290 291 292 293 293 293
313 313 313 314 315 315 316 317 317 317 317 317 317 318 317 317 318 319 319 318 318 319 320 320 317 315 312 311 310 294 290 283 285 294 300 313 316 317 316 315 315 301 297 299 299 299 295 293 292 290 288 284 286 287 286 288 288 286 283 284 285 285 283 285 285 287 288 286 287 286 286 285 288 288 287 287 284 283 287 290 291 291 291 291 291 292 292 291
313 313 313 314 314 315 316 316 317 317 318 318 318 318 318 317 317 319 319 319 318 319 321 321 317 313 315 313 297 293 289 276 289 294 310 312 315 314 314 312 312 300 300 298 296 296 295 293 293 287 285 286 285 284 286 287 288 284 284 285 285 285 284 284 287 286 287 286 286 285 286 287 286 285 287 287 286 288 292 292 292 292 292 292 292 291 290 290
313 313 313 314 314 314 315 315 316 316 317 318 318 318 318 318 318 318 318 319 318 319 321 320 316 313 311 308 293 295 289 286 289 296 308 312 312 310 312 306 306 296 297 296 295 295 294 293 292 285 283 287 286 286 287 287 290 287 283 284 285 286 284 284 286 286 287 287 285 287 288 285 286 283 286 286 288 290 292 292 292 292 292 292 290 290 290 290
313 313 313 314 314 315 315 315 316 316 316 317 317 317 318 318 318 319 320 319 318 320 320 319 317 311 314 292 289 288 288 286 293 296 307 309 301 300 304 298 297 295 293 292 293 293 293 291 288 290 287 285 284 285 287 288 288 285 284 285 285 286 285 284 284 285 286 285 286 286 285 284 286 284 286 285 288 290 291 292 292 291 291 290 290 289 289 289
312 313 313 314 314 315 315 316 316 317 316 316 316 316 316 318 318 319 318 318 317 319 319 318 319 312 307 289 285 287 285 291 294 295 297 295 295 295 296 295 296 293 291 291 292 293 295 289 290 288 284 285 287 286 285 287 283 284 284 284 285 285 286 285 285 283 284 286 287 285 283 284 284 286 284 286 288 290 291 291 290 290 289 289 289 289 289 289
312 313 313 313 313 314 315 316 317 317 318 317 316 315 316 317 318 319 320 317 317 318 316 316 317 311 297 288 287 285 288 293 295 296 295 295 295 296 296 295 294 293 292 291 292 290 291 290 292 294 289 287 288 284 285 288 284 284 284 284 284 284 285 285 283 284 285 285 286 283 282 282 286 284 280 286 288 290 290 289 289 289 288 288 289 289 289 288
312 312 312 313 313 314 315 315 316 317 318 318 317 315 316 316 317 319 320 318 316 317 316 314 314 303 293 291 287 283 293 293 294 296 295 295 294 293 293 294 293 292 291 291 290 289 289 292 292 293 289 285 287 286 286 285 285 284 283 285 284 286 286 285 284 284 283 283 284 285 282 284 283 283 280 283 287 289 288 288 288 288 288 288 288 288 288 288
312 312 312 313 313 314 315 315 316 316 317 317 318 315 315 315 316 318 319 317 314 315 315 311 307 295 292 290 286 286 292 293 294 295 295 295 294 293 293 293 293 291 290 290 290 291 290 290 289 287 284 289 282 283 285 285 285 285 283 284 282 285 284 285 282 283 282 283 283 282 283 280 281 278 282 284 286 287 287 286 287 287 287 287 288 288 288 288
311 311 312 312 312 313 314 314 314 315 316 316 317 317 315 315 316 316 317 315 315 315 314 310 302 293 290 286 286 293 291 293 294 294 296 296 295 293 293 293 292 292 291 291 290 291 291 290 292 288 285 283 283 281 285 285 281 286 286 280 281 280 281 284 284 283 282 284 282 282 273 277 278 281 283 285 284 284 284 285 285 285 286 287 287 287 287 288
311 311 312 312 312 313 313 314 314 314 315 315 315 316 316 312 315 315 314 313 315 315 312 307 295 291 289 282 291 293 294 297 294 295 293 295 295 294 295 295 293 292 293 291 290 292 292 290 290 288 287 285 284 287 285 282 283 283 280 282 276 275 276 282 282 281 283 283 284 284 274 274 278 280 283 284 284 283 283 283 284 283 284 285 286 286 286 286
310 311 311 311 312 312 313 314 313 313 314 314 314 315 315 311 312 312 313 312 314 315 310 307 292 286 284 286 290 294 307 299 293 292 293 293 292 292 293 293 292 291 291 291 291 293 292 294 292 286 284 286 286 281 280 280 280 278 277 276 276 276 277 279 284 281 278 281 283 282 274 275 277 280 282 283 283 282 281 283 283 283 283 283 284 284 285 285
310 310 311 311 312 312 312 313 313 312 312 313 313 314 316 312 310 309 308 311 310 310 295 291 291 288 285 282 289 301 289 291 291 293 292 293 291 290 292 290 291 291 290 291 294 292 291 291 287 284 283 286 282 279 281 280 279 279 277 276 275 277 276 276 282 282 281 279 283 280 275 276 277 280 281 282 282 281 281 281 282 282 282 283 284 284 284 285
309 310 310 311 312 312 313 313 312 310 311 312 313 314 316 316 312 308 308 305 297 297 296 291 288 289 284 289 293 289 286 289 291 292 293 293 292 291 291 289 287 287 288 289 292 292 288 286 285 284 284 280 279 279 280 277 275 277 277 275 277 275 275 275 278 283 281 280 278 280 277 275 277 279 280 281 281 281 281 281 282 282 283 283 283 283 283 284
308 308 309 310 311 312 312 312 311 309 310 311 311 313 307 313 309 306 302 298 292 292 291 291 286 285 283 289 284 286 289 286 291 290 291 293 291 292 290 288 287 285 285 286 288 286 284 284 284 280 280 280 279 278 278 273 275 275 275 275 275 276 276 276 275 279 278 280 278 278 277 276 277 279 280 281 281 280 281 281 282 282 282 283 283 283 283 283
308 308 309 309 310 311 312 312 309 309 309 309 311 312 312 309 292 293 294 293 290 286 283 285 284 278 276 284 286 287 288 290 290 289 290 292 292 291 289 288 286 285 280 280 282 282 280 280 283 279 276 276 276 275 276 276 276 276 276 275 276 275 276 277 279 281 279 277 276 275 275 275 277 278 279 280 281 280 281 281 282 282 282 282 282 283 283 283
308 308 308 309 310 311 311 311 307 308 307 298 288 292 288 286 285 284 289 291 285 285 284 285 284 285 285 285 287 291 292 291 287 290 291 292 292 289 288 285 284 285 280 277 278 282 280 277 273 273 274 275 276 276 276 278 277 277 276 276 275 276 278 279 278 282 281 276 276 274 275 275 277 277 278 279 280 281 280 281 281 281 282 282 282 282 282 283
308 308 308 309 310 310 310 310 306 307 305 290 292 288 283 283 280 282 283 284 283 283 285 285 286 286 286 286 287 288 285 286 286 288 290 294 289 287 286 283 282 280 279 278 278 280 280 277 275 276 276 276 276 276 276 277 277 277 277 276 275 275 277 279 279 280 282 276 276 277 275 276 276 277 278 278 279 280 280 280 281 281 281 282 282 282 282 283
308 308 308 309 309 309 310 309 305 305 304 296 294 288 285 285 290 286 281 281 286 285 284 283 284 285 286 286 287 287 285 282 286 288 291 293 289 284 283 282 280 278 279 277 275 276 277 274 276 277 277 276 276 276 276 276 277 276 276 275 275 276 276 278 278 279 281 278 276 277 275 276 277 278 279 278 278 279 280 280 281 281 281 282 282 282 282 282
308 307 308 309 309 308 309 307 307 302 292 292 290 290 290 291 290 288 285 282 282 285 284 282 284 282 285 287 287 287 282 281 279 285 287 290 285 284 280 279 279 279 280 279 275 275 274 275 277 278 275 277 276 276 276 277 277 275 275 275 275 276 275 276 279 278 280 276 276 276 274 276 278 277 277 279 277 279 278 280 279 280 281 281 282 282 282 282
307 307 308 309 308 307 309 306 303 295 290 290 290 289 291 291 292 290 282 276 280 283 286 285 284 282 283 285 288 285 281 282 281 283 290 286 283 282 280 279 278 277 277 278 278 277 274 277 278 277 275 276 275 276 276 275 275 275 276 274 274 274 276 276 277 277 277 278 278 277 277 275 277 275 276 278 278 278 279 278 279 280 280 280 280 281 282 282
307 307 308 308 306 308 307 305 292 289 288 285 287 291 289 292 293 291 281 277 275 281 286 285 283 285 287 290 287 287 283 283 283 284 286 286 284 281 280 281 278 277 277 277 278 277 276 279 278 275 275 275 276 275 275 275 274 274 276 275 276 276 275 275 275 277 274 274 277 276 270 270 275 275 274 276 276 278 277 278 279 278 278 279 280 280 281 282
307 307 307 306 306 307 306 288 284 285 285 285 288 291 291 290 289 285 278 267 271 278 283 281 289 284 289 284 286 280 283 280 284 286 290 288 288 284 280 278 280 278 277 277 277 277 278 279 277 275 275 275 275 274 275 276 273 271 275 275 277 276 275 275 275 277 273 272 277 276 271 263 273 276 276 276 275 275 276 275 276 276 277 278 279 280 280 280
307 307 307 305 305 306 286 283 285 285 282 283 287 288 291 292 290 291 285 268 266 278 280 285 285 284 289 284 282 283 274 278 286 284 285 288 285 287 280 277 277 279 279 278 274 275 278 278 277 276 275 275 274 274 275 275 272 273 274 276 276 276 275 275 276 277 275 276 278 273 272 267 270 275 277 276 274 274 274 276 275 277 277 277 278 278 279 280
307 307 307 306 304 300 286 285 284 283 283 287 288 290 288 289 289 286 275 263 266 281 280 280 285 287 286 284 285 280 280 281 279 282 286 286 285 284 280 278 276 277 277 276 267 276 278 277 277 276 275 274 274 275 277 277 274 276 275 276 275 276 275 275 276 276 275 275 274 273 275 271 268 273 276 274 274 273 274 275 276 277 277 277 278 278 279 280
307 307 307 306 304 302 290 287 284 286 289 287 289 288 291 285 284 276 268 268 276 277 288 281 291 285 281 283 282 279 280 281 278 281 285 284 287 283 277 278 277 278 279 277 273 278 279 279 279 278 274 274 276 276 275 276 275 275 277 277 276 276 276 276 275 275 273 270 266 271 273 265 268 271 274 275 273 273 274 275 275 276 278 277 278 279 279 280
307 307 306 306 297 291 288 286 289 290 290 288 289 288 288 285 281 273 269 265 277 271 280 281 281 280 279 278 278 280 280 279 280 281 281 279 282 283 281 281 277 276 277 278 278 278 278 281 283 278 277 278 277 277 276 276 278 277 277 276 274 273 274 272 271 271 266 262 267 272 273 271 266 272 275 273 274 275 274 274 274 275 276 277 278 278 280 280
306 307 306 304 290 290 285 281 287 287 288 289 289 288 287 278 268 262 266 270 278 276 280 275 278 279 276 277 275 279 278 277 279 279 278 280 280 279 279 278 279 274 270 275 276 277 277 277 278 278 281 279 278 277 276 277 276 277 274 274 274 273 271 270 262 264 264 259 264 272 271 272 262 268 275 277 275 274 277 276 275 277 278 277 277 278 279 279
306 306 305 298 295 288 285 284 289 289 289 288 286 280 278 278 273 271 269 279 272 274 275 274 277 275 275 275 274 276 276 276 277 277 275 275 274 275 275 273 273 266 265 267 270 276 277 277 277 277 283 279 276 276 275 276 277 276 273 273 269 262 260 261 259 263 260 259 268 270 270 266 269 273 273 278 276 275 274 277 278 277 278 277 277 278 278 279
305 305 305 299 297 288 292 289 291 289 287 288 283 276 269 269 270 265 266 267 272 273 273 279 277 276 274 273 273 275 276 274 277 276 277 273 275 274 276 275 274 272 266 270 271 268 271 275 275 277 278 279 277 273 274 272 275 275 272 268 259 260 253 256 251 252 258 265 269 270 269 268 271 273 274 277 276 275 275 276 278 277 276 277 277 278 277 278
304 301 291 295 293 293 294 293 290 290 288 286 283 279 273 270 268 279 267 266 271 274 277 276 276 275 273 274 274 274 273 276 275 275 275 271 269 270 274 276 276 273 266 268 270 268 264 267 273 275 274 277 276 276 276 275 274 273 274 273 269 258 261 259 252 262 262 263 266 266 265 262 268 272 276 275 275 275 275 276 277 276 275 276 276 276 276 276
302 292 290 288 291 292 292 289 289 289 284 281 277 272 271 267 264 268 268 266 272 275 279 275 275 273 271 272 273 275 276 271 276 273 274 269 267 271 272 274 276 275 273 267 268 267 271 269 274 277 277 276 276 277 277 275 271 273 273 272 265 264 266 264 253 258 255 257 262 261 267 269 273 276 279 275 275 275 277 276 278 278 277 276 275 276 276 277
299 289 290 287 291 292 287 290 286 288 283 277 272 271 271 267 273 268 271 277 278 277 275 276 271 270 269 268 269 273 278 274 274 270 267 271 274 272 275 275 274 275 272 268 269 264 268 268 275 275 278 277 276 277 278 278 267 273 272 264 270 274 266 258 260 259 259 255 261 259 268 272 273 274 276 275 274 275 276 275 275 275 274 274 275 276 276 277
287 288 289 287 288 289 288 289 290 285 282 275 273 272 267 269 270 272 280 278 279 276 273 270 268 271 265 265 267 270 274 275 273 270 266 272 268 275 275 276 277 275 276 273 268 271 267 269 274 274 277 277 277 276 278 276 276 273 265 272 275 273 268 268 263 255 250 256 261 262 265 268 268 267 275 275 273 274 274 274 274 274 273 274 275 276 276 277
285 286 291 286 289 287 288 288 288 282 279 274 271 281 269 271 276 278 277 277 278 276 271 269 272 275 268 270 267 271 274 272 270 265 267 270 267 278 275 274 277 276 276 276 270 269 273 264 270 274 274 276 277 278 276 278 277 276 274 277 274 261 264 260 259 258 257 256 257 262 264 265 269 271 272 272 273 274 274 274 273 274 274 274 275 275 276 276
281 282 282 287 289 288 288 286 285 279 274 275 266 278 273 272 276 275 277 279 275 274 273 269 267 271 273 270 271 272 272 270 271 265 266 268 266 277 276 276 276 276 276 276 272 272 269 265 267 274 275 274 275 272 266 271 276 271 276 275 274 266 261 261 261 258 259 256 256 262 258 266 270 271 273 274 274 275 274 274 273 274 274 275 275 276 276 277
283 282 276 288 288 288 289 288 281 278 274 274 269 269 273 274 280 280 278 279 278 275 273 273 270 267 271 271 273 271 272 272 272 271 270 271 272 278 277 278 275 276 276 277 273 275 269 269 262 270 271 273 269 270 271 273 269 272 270 264 268 266 270 267 263 262 262 252 253 253 260 263 270 272 274 275 276 276 275 275 274 275 275 275 276 276 276 277
280 276 277 286 288 286 288 284 277 270 270 268 269 269 272 275 279 279 279 277 277 278 277 274 273 271 268 270 271 271 271 272 271 271 272 272 274 268 276 277 276 275 276 274 273 272 262 263 264 264 269 266 270 276 274 274 273 271 272 271 270 266 265 262 264 264 258 260 258 251 262 268 273 275 274 275 276 276 275 274 275 274 275 275 276 276 276 277
282 275 279 286 286 287 282 277 272 270 270 272 273 273 277 285 277 278 278 277 277 277 277 276 275 271 269 270 272 271 270 271 273 270 272 272 275 274 276 274 275 276 274 270 271 276 273 261 263 265 267 271 273 274 275 274 272 272 274 272 271 268 263 258 257 258 260 264 260 256 256 262 273 274 274 274 273 274 274 274 275 275 275 276 276 277 277 277
274 276 285 286 286 285 280 272 274 274 272 274 278 278 277 277 276 278 278 278 275 276 272 274 277 274 273 273 271 266 269 270 273 274 273 272 273 275 275 273 275 275 274 272 275 276 279 261 263 266 266 269 272 269 268 271 273 269 265 264 269 269 268 266 260 260 260 259 259 255 256 264 273 275 274 274 274 274 274 274 275 275 276 277 276 277 278 279
275 277 283 288 285 285 280 276 269 270 270 271 274 276 278 278 278 277 276 277 272 276 276 273 276 278 275 273 270 269 272 268 271 273 272 272 273 276 273 274 276 274 275 274 271 272 266 264 266 261 259 261 261 264 268 268 266 265 268 270 271 268 264 259 258 257 261 261 266 258 261 261 272 276 274 274 274 274 274 275 275 276 277 278 278 278 279 279
278 278 280 283 286 285 278 271 271 269 272 271 271 273 273 276 277 278 277 276 277 275 275 276 277 277 275 275 273 273 270 271 267 271 273 273 274 275 274 272 276 275 278 279 282 277 267 264 263 261 259 261 261 260 261 257 263 270 270 271 270 269 264 264 263 257 259 262 265 258 263 271 273 274 275 275 275 275 277 278 278 278 277 278 278 278 278 278
277 277 275 275 278 278 277 277 276 272 270 268 270 272 274 273 278 277 277 278 277 277 276 277 277 275 274 274 271 270 270 271 269 265 269 268 270 273 274 272 272 275 281 285 281 274 263 268 266 264 264 266 268 266 266 272 267 265 268 268 269 270 270 267 262 261 264 265 261 266 268 270 271 274 274 276 276 275 276 277 277 278 278 279 278 278 278 278
276 274 273 274 272 275 269 273 272 274 275 274 270 271 272 272 273 275 278 274 278 277 277 277 274 275 274 273 270 271 272 271 270 269 269 268 269 271 270 273 272 277 283 281 278 269 262 262 265 266 267 269 269 266 267 271 268 269 268 269 271 270 270 268 266 266 268 263 263 268 271 268 270 273 274 275 275 276 276 277 277 278 278 278 278 278 281 278
278 274 271 274 276 274 271 274 272 272 273 274 270 273 272 273 273 272 276 277 278 278 274 275 276 277 276 274 272 268 269 269 268 268 272 270 270 271 273 274 274 279 280 273 275 271 261 263 263 265 263 267 269 269 270 267 269 269 269 269 269 270 270 267 268 270 270 265 264 269 269 268 271 273 275 275 276 276 276 277 277 278 278 278 277 277 277 277
277 271 271 276 275 271 272 274 273 274 273 270 275 273 272 272 272 273 273 275 276 275 276 271 272 275 274 274 273 268 270 267 266 268 268 266 269 269 268 269 274 274 270 272 270 265 267 261 263 266 266 267 269 270 270 269 269 269 268 269 270 270 270 270 269 270 269 268 270 270 270 270 272 273 275 276 277 277 277 278 277 277 277 277 277 277 277 277
274 275 275 273 272 267 270 273 273 274 274 280 272 274 274 274 274 275 276 274 272 275 277 274 273 274 275 273 271 271 272 273 274 271 272 271 267 271 268 271 270 273 272 270 270 269 268 261 273 266 265 267 267 268 267 268 265 266 269 270 270 270 270 270 270 270 270 269 270 269 269 268 273 276 275 277 277 277 276 275 276 277 277 277 277 277 277 277
280 278 278 278 272 273 274 273 274 271 272 274 271 273 275 275 275 275 275 277 275 274 275 275 274 275 274 273 273 274 275 274 274 275 274 273 270 274 272 270 275 267 272 268 269 267 270 263 263 265 264 264 265 265 266 266 268 268 268 269 269 268 264 267 268 270 268 267 269 268 267 268 273 275 275 275 275 275 275 276 276 277 278 277 277 277 278 278
280 281 278 276 275 281 276 273 274 274 273 274 273 273 275 276 276 277 276 276 277 277 277 276 276 276 273 272 274 276 277 276 277 276 276 277 276 276 277 275 276 274 269 272 268 267 268 261 262 262 265 266 267 265 268 269 268 266 262 264 268 268 269 269 270 271 271 270 267 265 268 274 275 277 275 275 276 276 276 276 277 278 278 278 278 278 278 279
Wind_Speed
18 17 17 16 17 17 17 17 17 16 16 16 15 15 15 14 15 14 15 15 15 15 14 15 15 16 14 11 10 8 3 5 18 22 28 16 22 28 26 26 24 24 23 7 18 17 8 10 12 12 8 8 6 6 4 6 3 7 7 4 10 2 6 1 1 0 1 4 7 11 7 10 10 7 2 5 22 14 15 18 11 14 14 9 8 10 10 14
18 17 17 17 17 18 17 17 17 17 16 16 16 15 15 15 15 15 15 15 15 16 16 16 17 16 12 6 3 1 5 6 11 17 19 21 28 27 27 25 24 23 17 10 10 8 8 9 8 8 8 7 5 5 3 3 5 8 4 6 7 1 1 3 2 3 1 6 4 10 11 14 11 4 6 15 16 15 18 16 13 14 14 12 14 15 18 20
18 18 17 17 17 17 17 18 17 17 17 17 16 16 15 15 15 15 15 16 16 17 16 17 18 17 10 7 8 9 2 2 10 27 15 28 29 27 27 24 24 21 8 2 4 2 2 3 5 6 6 9 10 4 8 5 5 5 7 10 5 1 3 4 3 3 3 3 9 15 12 24 13 7 4 20 16 20 21 14 16 18 16 16 15 16 16 19
19 18 18 18 17 18 18 18 18 18 17 17 16 16 15 15 15 15 15 16 17 17 17 17 18 17 10 9 7 3 4 3 16 8 13 28 29 27 26 24 22 16 5 1 3 5 1 0 6 9 6 12 5 8 13 7 5 4 8 4 2 0 3 10 5 4 4 3 9 10 16 23 16 13 9 6 23 18 14 15 13 13 13 13 14 15 15 19
19 18 18 18 18 18 18 18 18 18 18 17 17 16 15 15 15 15 15 16 16 17 16 17 16 15 13 8 4 4 3 9 6 9 16 29 28 27 25 22 22 9 1 1 2 7 6 7 7 8 7 5 6 8 8 8 3 5 5 2 2 1 6 7 5 9 12 6 14 12 16 7 2 22 18 22 18 11 10 10 12 11 11 13 14 15 16 20
19 18 18 18 18 18 18 18 18 18 18 18 17 16 16 15 15 14 14 15 16 16 16 15 15 6 8 14 13 5 6 6 6 11 20 28 27 25 23 19 21 13 16 17 7 8 16 11 17 8 6 10 10 13 5 7 3 15 6 8 10 5 7 5 5 4 8 12 15 17 7 8 20 11 11 20 17 10 10 9 9 11 10 11 11 13 20 20
19 18 18 17 17 17 17 17 17 18 18 18 18 17 16 16 14 14 14 14 15 15 14 14 15 7 2 8 4 19 15 4 3 12 21 25 25 22 21 15 19 15 19 17 15 9 8 13 14 4 5 13 10 13 9 11 13 16 8 6 11 11 12 4 9 7 15 23 17 12 9 14 14 23 5 19 10 10 9 9 8 7 10 8 17 20 19 18
19 18 18 18 17 16 16 16 16 16 17 17 17 18 17 16 15 14 14 14 15 14 13 13 13 9 3 2 4 10 12 6 11 11 20 23 20 18 17 12 15 9 16 11 11 8 8 11 6 1 12 9 1 4 1 21 14 12 8 5 4 12 6 6 5 9 15 14 10 12 19 10 19 9 11 15 11 9 8 7 9 7 9 17 20 19 17 18
19 19 18 18 17 17 16 16 16 16 16 16 16 17 17 16 16 14 14 14 16 15 16 15 13 8 6 4 2 14 10 5 7 10 14 16 16 11 13 12 13 9 6 9 8 9 10 4 9 4 5 7 3 11 10 12 10 5 6 6 8 9 9 7 11 9 7 4 10 23 15 9 2 8 20 10 11 9 7 6 7 8 20 18 18 16 16 16
19 19 19 18 18 17 17 17 16 16 15 15 15 16 16 15 15 14 13 14 15 16 17 17 16 18 9 2 3 18 4 5 7 10 13 14 13 13 15 11 12 13 11 12 17 14 6 2 4 1 9 8 4 7 2 18 7 2 8 10 13 7 9 7 9 8 9 11 17 21 17 11 15 6 7 9 10 8 7 6 5 16 18 16 14 14 14 15
19 19 19 19 18 18 18 18 17 17 16 15 15 16 15 14 13 14 13 11 15 14 13 13 9 9 9 5 17 9 2 8 6 8 12 11 11 10 9 10 11 9 8 11 9 3 0 1 1 0 5 0 6 10 11 0 3 2 2 9 10 10 15 14 9 8 3 2 9 17 15 15 10 8 7 4 6 7 6 8 13 16 16 14 14 14 12 13
19 19 19 19 19 18 18 18 17 17 16 16 14 15 15 11 11 11 12 10 14 13 9 10 7 2 2 18 13 3 6 5 7 6 7 9 10 6 3 5 6 7 7 7 9 8 3 1 2 4 4 0 5 1 6 1 3 3 4 11 4 12 14 15 8 7 4 1 4 3 16 19 16 9 8 6 5 7 7 11 12 14 13 13 12 11 11 11
19 19 19 19 19 19 19 18 18 17 16 16 15 14 15 11 8 9 10 9 12 12 7 12 6 5 1 18 3 3 3 5 5 9 14 14 8 2 1 5 6 6 5 7 6 8 6 3 10 13 1 4 1 3 1 6 3 4 12 2 7 8 12 15 8 13 3 6 6 3 6 8 9 9 9 9 7 6 6 11 10 10 10 10 11 10 10 11
19 19 19 19 19 19 18 18 18 17 16 16 15 12 12 14 10 8 7 5 8 10 6 10 6 7 9 4 4 3 5 3 4 16 17 13 16 11 12 13 3 5 4 4 3 7 7 3 13 7 3 7 3 2 3 3 7 8 5 5 4 4 3 8 6 13 10 6 12 6 7 4 6 7 8 8 7 6 6 8 7 8 8 8 9 10 11 11
20 20 20 19 19 19 19 18 18 17 16 15 14 12 11 18 13 9 8 6 10 9 3 4 7 4 8 0 5 8 6 4 13 10 8 13 11 10 16 14 10 6 2 5 2 6 4 11 14 10 5 4 2 4 5 5 5 4 6 6 6 6 1 5 11 11 4 4 8 13 8 4 4 5 7 5 6 5 4 7 6 6 6 6 6 7 8 7
21 20 20 20 20 19 19 19 19 18 17 15 13 11 8 14 16 10 9 6 8 12 1 8 8 8 10 4 2 7 5 13 13 8 4 4 4 4 9 9 5 7 9 4 2 3 11 9 11 3 3 7 13 5 9 7 8 7 7 1 4 4 3 3 12 9 6 3 17 7 9 3 3 4 4 5 4 4 2 5 5 4 4 5 5 5 5 6
21 21 21 20 20 20 20 20 19 19 17 15 12 8 5 7 14 6 6 7 6 4 7 3 2 0 8 3 2 7 5 4 5 5 11 3 2 4 6 7 5 11 10 5 17 11 10 6 2 4 6 7 2 3 11 9 6 7 5 5 1 3 4 4 6 13 12 7 8 9 11 4 2 0 2 3 3 1 1 4 3 3 3 3 3 4 4 5
20 21 21 21 21 21 20 19 19 19 18 15 7 6 4 7 12 17 10 5 2 6 3 4 2 3 2 6 4 9 6 6 10 9 5 5 3 7 7 6 4 4 4 6 9 12 6 7 6 8 5 11 12 9 10 4 1 3 3 6 6 5 7 5 5 5 8 11 15 8 12 5 3 0 1 1 2 0 1 3 2 2 2 2 3 3 4 4
20 20 20 20 21 21 21 20 20 19 18 13 5 2 5 4 4 8 12 8 9 9 9 11 11 7 1 7 7 7 6 5 5 6 15 11 4 2 3 1 3 7 3 6 3 5 5 3 8 13 11 10 9 7 7 4 3 5 3 3 2 6 5 4 2 1 5 7 10 5 7 4 1 1 1 1 2 1 1 1 2 2 2 2 3 3 4 4
19 19 19 19 20 20 20 19 20 19 17 6 3 2 3 2 7 6 7 13 10 6 4 1 1 1 2 5 7 8 5 5 4 13 15 7 6 6 6 4 1 7 8 6 9 11 4 15 8 4 6 7 6 2 1 1 3 4 4 4 4 3 1 1 1 3 1 3 4 3 3 2 1 0 1 2 2 2 1 1 1 1 1 2 2 3 3 3
18 18 18 19 19 19 18 16 20 16 14 4 5 7 3 0 3 3 3 4 1 1 4 0 1 1 0 3 4 8 6 4 3 11 10 8 2 5 9 7 8 14 7 1 3 4 4 15 8 5 6 5 7 5 1 4 2 6 7 6 6 2 2 0 1 4 3 3 0 1 3 2 1 0 1 2 2 0 0 0 1 1 0 1 2 2 2 2
18 18 18 18 18 18 14 13 19 15 10 7 11 8 3 2 0 0 2 3 2 2 4 1 0 2 3 3 3 2 3 1 10 15 10 12 11 7 5 10 11 11 6 2 3 7 13 7 6 5 4 3 3 2 2 3 5 3 6 4 4 3 3 6 2 4 5 5 1 0 2 2 2 1 1 1 2 2 2 2 1 0 1 1 1 1 2 3
19 18 18 18 18 17 11 9 10 16 7 9 6 5 2 3 2 1 1 5 2 1 3 3 5 4 5 3 2 3 4 12 4 10 12 8 5 9 1 7 10 5 8 5 8 3 8 5 6 3 2 1 3 3 1 4 6 5 4 6 2 2 1 1 2 5 6 2 4 2 3 2 1 2 3 2 2 2 2 2 2 2 1 0 0 0 0 1
19 18 18 18 17 14 7 7 6 9 9 6 8 4 3 2 2 2 1 1 2 1 2 0 1 1 3 4 4 5 4 1 2 14 9 4 4 1 5 4 5 4 8 8 11 13 6 3 2 1 2 3 1 5 11 7 4 3 4 4 1 1 1 1 1 5 4 1 3 1 2 3 5 3 2 3 1 1 2 2 1 1 2 2 1 0 1 1
18 18 18 18 18 12 2 8 9 3 1 3 4 1 3 2 1 0 2 1 3 1 1 1 3 1 2 1 4 0 1 0 2 3 3 4 6 3 1 2 3 5 0 2 7 9 2 1 0 2 5 5 1 8 7 2 1 3 1 2 0 1 3 3 2 1 2 2 1 1 2 5 3 6 7 4 1 2 1 0 2 3 3 3 2 1 2 1
18 17 17 18 19 10 2 6 2 1 5 3 1 4 3 1 1 1 5 3 1 3 2 4 1 2 2 4 5 1 2 3 2 3 2 5 4 1 1 4 2 2 0 1 4 3 2 1 3 1 3 4 7 6 0 2 1 2 0 1 1 3 2 1 3 1 1 1 0 1 2 6 1 7 7 6 4 5 3 2 3 3 3 2 2 2 2 2
17 16 16 16 20 8 4 0 0 1 2 1 1 2 3 1 1 1 0 4 3 1 2 2 1 1 1 2 1 0 3 3 5 2 5 5 3 1 5 3 2 2 2 1 1 2 2 5 7 3 3 6 5 6 0 2 2 1 1 2 4 0 2 3 2 4 1 1 0 2 3 3 7 7 5 6 5 5 4 5 3 4 4 3 3 2 2 3
17 15 15 12 15 13 5 3 2 3 2 2 1 2 2 1 1 1 3 2 1 4 2 4 1 3 4 6 9 7 3 6 2 3 4 7 1 5 8 1 3 1 1 2 2 2 3 5 5 7 6 6 4 1 2 1 1 2 2 2 5 3 3 1 1 1 1 1 6 1 0 0 5 5 2 4 5 5 8 6 5 4 4 4 4 4 3 4
17 15 14 10 8 12 6 5 4 2 1 2 2 2 0 2 2 4 4 1 0 1 3 0 2 2 7 5 8 3 2 5 2 3 9 2 7 2 5 2 1 1 1 2 4 1 2 1 1 1 3 5 4 3 3 5 3 1 2 2 2 3 3 1 1 2 2 1 5 4 2 2 8 4 5 1 2 8 7 8 6 6 5 4 4 4 4 4
16 15 13 10 3 5 5 3 4 1 1 1 2 0 2 2 2 2 3 2 1 1 1 2 4 6 4 1 2 8 9 4 2 6 4 2 8 8 2 1 0 3 4 6 6 2 1 3 3 4 2 2 4 3 2 4 1 2 3 2 4 5 3 2 5 2 3 1 7 2 0 1 6 5 9 10 9 6 5 3 2 3 4 4 4 4 4 4
15 13 11 8 5 0 0 3 2 1 0 0 0 1 0 5 2 4 0 1 1 1 1 4 2 4 6 8 5 6 1 4 9 6 6 7 9 4 5 2 3 3 4 6 4 6 2 2 1 1 0 3 0 2 2 1 2 1 1 2 2 1 6 1 3 3 1 6 4 0 3 0 3 5 5 6 2 5 11 8 7 5 4 3 3 4 4 4
14 11 8 6 1 1 3 1 1 0 0 1 1 1 3 1 2 0 1 2 0 2 3 3 1 1 3 1 3 7 6 5 4 7 7 5 7 11 8 3 6 2 2 5 5 3 0 2 2 5 2 7 4 1 1 1 3 5 3 6 2 4 4 3 2 2 5 6 1 1 3 3 11 9 3 6 5 3 4 8 9 6 2 2 3 4 4 4
11 8 4 4 1 2 1 0 1 0 1 2 1 4 1 4 1 1 1 3 0 1 0 2 2 3 1 2 4 3 1 4 4 3 1 4 5 2 1 6 2 1 1 2 2 7 2 2 5 4 3 3 4 5 7 2 8 9 5 2 3 1 2 2 4 2 5 3 2 1 1 5 4 6 3 7 6 3 4 5 6 5 3 1 2 4 5 6
9 5 2 3 1 0 0 0 0 1 2 2 1 3 4 1 2 2 0 1 1 2 2 1 3 0 5 3 1 1 4 1 3 2 3 1 6 4 6 4 6 6 3 1 3 1 3 2 3 4 2 4 3 3 1 1 3 2 2 1 1 4 1 3 2 3 3 3 5 4 3 6 1 2 3 1 1 0 3 5 4 3 2 2 3 4 5 5
6 4 2 2 2 2 1 0 2 2 2 2 7 5 1 3 1 2 1 1 2 2 0 1 1 2 2 2 2 1 1 1 1 2 7 4 2 1 4 7 6 3 1 1 0 0 1 5 3 2 2 2 2 0 1 2 1 1 1 2 3 1 1 1 2 1 2 4 7 1 6 1 1 1 1 1 1 3 3 3 1 2 2 2 3 4 5 6
3 3 1 2 2 3 2 1 2 2 1 4 2 2 1 2 0 1 1 1 0 0 0 2 5 2 1 1 2 3 4 0 3 2 3 3 1 1 1 1 3 3 3 2 1 2 3 0 2 6 2 3 3 2 1 0 1 2 2 1 1 1 4 3 1 1 1 3 8 1 9 5 5 2 1 2 3 2 0 2 1 2 3 3 4 5 5 5
3 4 2 3 2 3 1 1 2 3 5 4 3 1 1 1 1 3 1 2 0 1 2 0 2 2 1 1 1 4 1 2 1 2 1 0 1 0 0 0 2 1 1 1 1 1 1 8 3 2 0 0 1 1 1 3 1 2 2 2 1 1 3 2 2 3 4 1 7 2 5 6 4 6 1 0 2 4 4 4 4 3 3 4 6 5 5 6
2 2 0 2 3 3 1 1 2 5 4 3 2 3 0 2 1 1 2 0 0 1 2 2 0 2 1 0 2 2 6 0 4 3 0 0 1 1 1 1 1 1 2 1 2 2 1 5 1 1 2 6 4 1 2 1 2 2 2 2 1 1 1 3 2 3 3 4 6 6 4 6 5 8 2 6 7 9 8 5 4 4 4 5 6 7 6 6
2 1 1 1 3 2 1 2 5 1 1 5 1 1 1 0 1 1 2 2 0 0 1 1 1 1 2 1 1 0 3 2 1 1 1 1 2 2 0 1 1 1 2 2 2 1 2 0 6 1 1 4 3 4 2 3 3 2 1 1 0 3 2 0 1 2 5 6 5 7 5 7 6 4 8 9 11 10 7 6 5 6 5 5 5 5 6 6
1 1 1 1 4 2 1 2 5 8 6 1 2 0 1 1 0 1 0 1 1 0 0 2 0 1 1 1 1 0 1 1 1 0 0 1 1 0 1 2 0 2 2 1 2 0 1 0 2 3 3 1 1 3 0 1 3 5 3 2 1 1 1 2 0 2 3 3 3 2 7 6 6 5 6 10 10 11 10 8 5 5 5 5 6 7 6 7
1 2 1 1 4 2 3 12 12 7 6 1 1 3 0 1 0 0 1 1 0 2 1 2 4 0 2 1 0 0 1 1 0 0 0 0 0 1 1 1 1 2 1 2 6 2 1 1 4 4 7 1 2 1 0 2 1 1 1 0 2 0 0 1 7 2 1 1 4 2 12 6 6 2 2 5 6 5 5 4 4 4 5 6 7 6 6 7
1 0 1 1 3 2 2 7 5 0 5 4 1 1 1 2 2 1 1 1 2 1 2 4 1 4 1 1 1 0 1 1 0 1 1 1 0 1 0 2 3 1 1 0 1 1 2 2 1 6 5 5 3 2 2 2 2 1 1 0 2 1 4 3 2 3 1 2 3 2 2 10 5 2 3 3 2 3 4 2 4 5 7 7 7 7 8 8
2 1 1 2 3 3 10 7 1 5 3 1 3 1 2 1 2 1 0 2 0 1 2 2 1 1 0 1 1 0 1 0 1 0 1 1 3 3 2 3 3 3 3 1 1 0 4 1 2 5 5 4 3 0 0 3 4 2 1 1 0 0 1 4 4 2 2 1 2 3 5 9 6 1 2 1 1 2 3 1 5 7 8 9 7 9 12 11
0 1 2 1 2 3 3 0 0 1 0 1 2 1 2 1 0 1 1 1 0 1 1 0 1 1 1 2 2 1 3 1 1 1 0 0 0 1 0 1 2 0 1 0 1 2 2 2 3 4 5 2 3 2 2 2 3 1 1 1 1 3 4 1 4 1 2 8 9 5 14 1 3 1 1 2 3 5 6 6 4 9 10 9 10 11 12 11
0 1 1 6 7 5 1 2 7 5 1 2 1 4 1 1 1 0 1 1 1 1 1 0 0 1 2 1 2 2 1 0 0 1 1 1 1 1 3 3 3 1 1 2 1 1 1 1 1 1 3 7 8 7 7 4 2 2 0 0 0 3 5 1 5 1 4 3 9 6 11 3 2 2 6 7 6 8 9 12 12 10 12 13 11 11 12 11
1 1 3 4 7 6 6 1 4 7 7 3 3 1 1 1 1 1 3 1 1 1 1 2 1 3 2 1 1 1 0 2 1 1 0 1 2 1 1 4 1 1 1 4 3 3 1 1 1 4 6 7 7 4 1 1 3 3 2 1 3 3 5 2 4 2 13 3 6 12 10 18 20 20 18 18 13 13 13 12 14 16 16 15 11 12 11 11
1 1 1 1 3 7 2 3 2 3 5 4 2 3 1 1 1 1 3 0 0 1 1 1 1 1 0 1 0 1 0 1 2 1 2 2 1 2 3 1 3 1 2 4 2 5 2 1 5 6 8 8 4 6 4 2 7 8 7 8 6 6 6 7 8 13 6 3 19 7 18 17 24 14 13 14 13 11 13 14 16 16 16 14 13 13 14 14
0 1 2 1 1 0 2 1 2 4 3 3 1 1 4 2 0 2 1 0 0 0 2 0 1 1 5 4 4 1 0 0 1 1 1 0 1 3 1 1 1 3 3 1 2 2 2 1 2 2 7 7 8 9 7 4 6 7 6 8 11 11 9 13 15 17 10 10 21 7 5 13 21 17 17 18 16 15 15 16 17 17 16 13 13 14 15 15
2 1 1 1 1 1 0 1 3 6 5 2 2 2 3 3 5 4 3 0 1 0 1 1 3 6 4 2 2 1 2 1 3 1 2 0 2 1 1 3 0 4 2 1 1 1 2 3 3 1 7 5 6 9 8 9 7 6 7 12 15 15 15 14 16 15 15 19 17 18 19 23 23 22 18 18 17 15 15 13 12 14 16 14 13 14 14 14
1 2 0 3 5 3 0 1 1 3 4 0 2 3 5 7 5 1 1 3 1 2 0 1 3 3 5 4 3 3 6 4 1 1 2 3 1 1 2 5 1 2 2 1 1 1 3 4 5 0 3 8 3 4 5 7 5 10 10 16 19 15 14 15 14 17 16 16 19 22 24 24 20 15 14 13 13 10 9 11 15 16 14 13 12 13 13 14
0 0 3 6 2 0 1 1 1 2 2 0 2 2 2 5 4 6 2 3 2 4 4 4 3 5 2 3 2 6 4 5 4 2 7 6 2 5 4 2 4 2 2 1 1 2 0 4 2 1 3 5 1 2 5 8 11 14 18 16 14 11 10 9 10 12 8 13 12 12 14 15 15 7 7 6 7 8 12 14 15 14 12 11 13 14 15 16
1 0 1 2 2 1 1 0 0 2 1 4 3 3 2 7 3 5 1 1 1 1 5 5 4 7 1 2 7 9 4 5 6 4 7 7 1 2 4 2 7 7 4 3 0 3 4 1 0 1 3 7 1 1 10 16 16 8 2 3 5 3 5 2 8 11 11 7 6 10 15 12 12 9 12 14 12 13 12 12 14 17 14 12 14 16 17 17
Wind_Direction
14 13 9 9 7 4 3 3 4 5 6 6 4 2 359 355 356 353 352 350 349 349 350 348 341 337 332 309 286 286 8 28 12 21 32 2 346 342 340 342 344 342 342 340 7 24 351 16 9 339 39 49 325 30 310 38 9 52 57 116 64 142 59 223 130 116 65 59 7 19 1 60 53 345 27 20 35 60 61 62 77 73 68 55 36 26 25 19
15 14 11 8 7 5 4 4 4 5 6 6 5 1 358 357 353 351 349 350 348 349 351 353 347 349 349 338 289 72 77 17 19 23 26 345 345 343 343 343 345 352 349 16 10 3 26 0 352 359 44 40 322 24 359 10 28 68 105 71 112 162 51 59 317 7 49 51 61 56 40 60 31 357 340 74 35 34 45 40 38 46 43 39 33 25 28 32
15 14 13 11 8 6 5 5 5 4 5 4 4 1 359 354 353 350 349 349 349 351 353 355 356 3 19 45 98 101 80 4 3 21 341 343 344 341 343 345 347 350 8 344 330 6 34 305 301 55 15 66 13 8 36 355 44 22 98 77 54 151 95 46 23 360 42 118 70 64 50 57 24 31 320 80 65 39 40 17 18 32 26 24 22 23 30 38
14 13 11 10 7 7 6 5 4 4 3 3 1 0 357 355 351 351 349 348 353 351 352 358 2 6 49 52 49 59 63 16 36 334 335 338 339 342 341 347 351 347 348 354 305 15 309 234 42 58 60 56 327 42 39 338 64 347 59 62 69 331 64 354 18 56 91 118 86 82 72 65 38 39 28 81 58 36 33 28 34 34 28 28 26 26 32 39
12 12 10 10 9 7 6 4 2 1 0 359 359 358 356 354 352 349 347 351 351 353 352 355 9 356 45 32 41 64 66 56 355 342 324 336 338 339 341 349 351 350 316 60 60 13 44 30 62 43 61 55 4 51 20 355 66 94 75 30 3 310 64 352 39 76 92 80 87 60 55 84 111 42 33 56 73 49 25 23 31 43 40 36 34 31 38 41
11 12 11 10 10 8 6 4 2 359 357 358 357 355 355 352 351 349 349 349 353 353 349 350 352 358 353 53 44 67 96 61 321 323 324 335 335 339 340 348 357 10 31 34 33 18 39 12 58 28 30 57 42 67 345 34 276 83 28 39 38 42 95 334 43 20 102 71 62 69 66 83 75 68 36 58 57 54 36 30 43 46 46 49 52 48 47 43
11 10 10 9 7 7 6 4 1 360 358 356 356 355 353 352 348 349 348 350 351 350 350 343 350 342 276 58 70 71 78 128 300 299 329 335 335 335 342 359 3 19 36 29 11 45 28 50 62 14 85 76 38 69 53 60 55 81 80 51 38 58 65 30 75 91 76 82 75 91 86 55 80 68 20 60 48 49 42 30 33 49 55 53 54 44 47 46
10 9 8 7 5 3 3 1 359 357 358 357 355 357 355 351 349 347 347 348 352 350 349 348 344 18 294 42 36 54 48 7 325 321 330 334 337 336 344 10 9 18 45 45 18 14 48 33 62 348 56 77 271 66 347 67 35 71 69 44 54 58 46 44 71 56 80 82 113 74 66 62 67 91 58 50 43 33 31 38 38 46 62 52 53 47 46 48
10 8 7 6 4 1 360 357 357 354 355 357 357 358 358 353 349 347 351 353 356 354 354 356 351 25 83 87 113 56 14 326 302 313 333 336 332 339 18 7 348 30 51 41 41 31 60 318 54 43 80 58 340 62 332 88 33 24 89 88 74 65 54 30 60 42 47 83 79 59 51 39 142 87 50 34 30 23 24 37 41 45 54 48 50 47 45 46
9 8 7 5 5 2 359 358 355 354 351 353 357 358 356 356 352 349 349 359 1 0 2 2 6 8 37 51 68 62 291 318 323 336 335 340 333 1 6 8 6 18 31 13 32 30 35 343 98 84 114 69 47 49 334 69 130 145 86 78 80 74 61 15 71 64 62 70 64 80 53 27 12 76 59 17 20 12 33 34 32 51 55 51 50 46 42 44
9 8 7 5 5 2 0 359 357 354 352 350 352 358 356 360 1 356 350 353 5 2 6 11 10 31 48 52 65 80 291 8 331 336 337 336 355 13 353 355 1 27 27 32 48 36 215 241 229 23 47 155 60 45 52 229 143 64 176 76 53 55 47 23 14 358 321 45 72 73 72 45 7 52 41 344 355 9 29 41 44 51 55 50 47 50 46 48
8 7 6 5 4 3 1 1 359 356 352 349 346 353 358 5 10 5 359 350 358 360 12 13 18 106 68 62 57 52 287 319 315 324 332 348 346 303 297 16 24 28 39 39 15 11 18 88 95 62 122 308 49 44 36 9 90 61 87 78 11 51 41 12 3 320 2 341 324 218 44 25 15 37 1 7 19 9 16 47 45 52 53 52 51 51 47 44
6 5 5 4 2 2 1 0 359 357 351 348 343 342 355 1 15 15 7 4 347 354 16 16 38 71 117 55 335 227 289 300 318 320 359 4 324 204 184 57 28 30 27 64 25 344 347 35 69 62 322 92 92 62 175 55 327 45 31 82 29 20 33 359 346 347 28 346 333 103 49 355 355 9 7 7 13 357 20 47 43 48 49 48 48 48 48 45
5 4 3 2 1 359 358 358 357 355 350 344 337 332 352 13 3 10 10 13 342 353 32 41 53 49 64 104 240 258 285 318 324 10 2 339 15 334 0 357 39 23 3 78 59 6 20 29 90 111 99 57 77 337 44 353 9 77 264 55 42 23 17 345 14 338 67 333 14 101 96 326 360 359 0 1 7 4 38 52 43 46 44 45 47 47 48 44
4 3 1 0 358 356 355 353 353 352 348 340 333 329 346 18 5 1 5 3 0 350 61 68 39 76 46 51 262 291 329 238 15 1 344 5 6 353 347 331 344 17 336 28 52 28 337 57 51 34 31 307 27 47 21 40 21 25 40 0 339 72 322 308 11 20 64 327 356 77 78 62 25 350 350 358 2 9 25 58 47 45 49 49 48 52 52 48
2 1 360 357 356 354 352 349 350 348 343 337 330 324 318 14 12 19 22 7 0 3 356 56 350 91 115 49 298 354 35 20 344 320 316 25 24 7 300 292 290 355 31 10 106 70 44 64 83 100 1 359 37 63 63 44 4 9 75 99 359 19 345 353 9 1 10 202 12 104 136 129 21 347 349 349 14 350 20 55 44 41 45 48 48 54 55 50
2 0 358 356 355 351 349 348 348 346 338 330 326 318 343 11 10 40 55 45 357 346 56 11 18 72 71 256 350 22 353 304 303 330 346 25 55 326 340 16 10 333 350 330 33 33 8 52 306 39 41 77 303 38 86 45 40 22 22 79 339 51 321 48 309 16 360 87 65 41 100 119 156 295 327 337 356 339 48 70 56 53 53 43 54 57 53 57
2 360 357 355 353 351 347 347 347 344 336 324 312 312 339 14 15 28 6 11 360 78 86 108 110 35 4 20 21 317 323 299 339 313 269 323 67 358 39 27 321 348 17 10 15 27 338 42 20 92 35 21 27 9 76 105 166 83 11 73 50 57 54 68 50 335 25 43 86 81 89 121 138 184 359 319 344 356 67 84 91 78 58 48 55 54 53 51
2 359 356 354 352 350 348 345 347 346 338 316 305 267 9 13 31 53 33 348 36 354 26 343 13 71 178 312 281 283 302 274 289 10 341 357 331 54 33 92 45 36 347 54 344 31 349 103 42 41 24 2 6 21 66 149 131 113 120 97 99 77 16 56 309 288 50 47 59 41 110 120 57 15 344 336 342 54 2 14 36 32 31 39 39 39 44 36
2 358 356 352 351 350 347 347 349 348 352 359 12 31 12 20 9 347 350 41 65 105 145 267 176 246 340 345 331 287 254 9 15 352 359 0 340 339 48 40 318 64 56 48 309 38 325 62 43 345 310 312 303 334 246 225 145 129 90 75 56 77 24 321 316 300 49 65 38 80 80 101 56 301 296 306 347 5 358 34 30 23 40 34 31 30 19 29
1 358 355 352 350 348 348 350 357 350 6 75 55 59 72 152 72 54 358 47 205 94 89 116 129 154 261 267 294 359 16 326 75 5 358 304 137 37 348 17 2 47 6 269 94 313 33 60 359 320 296 288 286 302 127 79 57 100 92 81 42 49 55 251 282 331 345 117 259 52 77 112 177 326 304 330 38 269 268 29 53 49 55 32 51 33 4 320
359 356 356 352 349 349 351 355 3 2 25 44 64 80 110 142 155 91 118 53 11 11 38 5 317 11 331 222 261 157 128 335 352 4 345 19 350 77 321 62 58 55 323 6 16 24 46 50 312 310 300 297 322 332 72 116 96 55 98 122 69 3 251 284 267 342 356 83 250 101 163 202 195 214 254 197 247 247 247 243 247 199 10 33 27 25 6 360
358 355 354 352 348 348 358 5 15 16 33 21 48 66 58 296 335 211 98 118 72 330 41 14 20 0 343 317 330 104 45 38 296 336 349 2 7 58 14 43 47 63 30 30 98 62 57 360 312 311 29 45 351 358 65 83 63 65 64 61 132 256 61 5 331 6 345 100 183 173 183 230 271 270 233 233 209 239 252 259 256 234 227 284 277 250 305 322
357 355 353 351 346 346 13 42 27 30 39 61 68 48 293 4 6 36 67 80 134 328 51 317 86 85 3 10 339 36 58 343 61 333 345 28 50 249 73 54 84 36 41 44 74 86 135 237 274 34 56 127 88 32 42 36 48 336 83 120 161 332 293 160 291 326 305 19 95 79 340 305 217 192 221 245 259 246 290 334 330 297 246 239 246 243 214 251
358 357 355 350 344 348 42 58 37 16 233 35 57 358 332 3 108 60 92 13 18 12 139 67 96 49 320 296 357 56 330 289 79 251 305 42 337 43 66 158 91 20 86 3 82 94 94 266 182 37 35 44 114 48 29 52 22 333 278 147 217 205 245 296 332 10 32 336 350 138 11 288 222 209 208 217 267 239 235 170 266 282 302 346 3 305 314 309
359 359 360 357 348 343 112 54 333 280 62 56 260 311 332 44 104 89 86 79 37 286 359 8 173 356 168 339 9 350 359 50 298 313 306 355 233 103 88 23 58 67 303 76 90 111 120 348 65 55 76 68 71 97 266 79 88 53 257 114 324 259 200 241 297 115 300 150 283 26 160 266 284 232 213 212 208 236 284 264 261 288 288 301 278 289 292 290
359 360 6 9 357 10 58 124 258 87 39 330 262 306 308 29 195 40 40 347 38 302 26 254 74 326 86 312 327 348 49 297 329 355 7 346 12 306 91 325 22 53 100 151 34 8 22 358 16 33 43 51 50 36 259 100 98 20 192 36 359 71 201 228 170 197 222 297 252 54 112 204 304 265 208 191 184 226 258 255 268 264 275 273 266 266 271 282
357 359 7 20 27 31 144 119 36 41 174 259 312 316 309 221 140 79 79 44 335 350 3 319 26 336 71 312 13 83 168 277 25 327 55 302 11 350 79 59 106 360 291 86 96 300 65 348 11 12 26 41 58 206 277 134 129 234 190 253 284 239 236 143 110 102 316 338 278 61 98 284 253 263 37 126 193 236 237 230 228 245 256 262 265 265 266 262
357 357 359 10 62 60 65 98 112 76 259 245 295 317 325 41 85 93 116 133 240 69 187 6 210 25 342 359 31 29 354 6 93 291 324 355 43 175 47 329 140 130 58 140 153 273 7 104 294 106 67 354 269 256 210 162 34 279 152 100 94 79 66 85 97 84 324 73 269 204 179 194 271 268 172 333 249 230 219 213 216 220 229 246 271 278 275 281
355 357 357 0 69 19 2 38 53 240 264 348 307 265 49 53 34 38 16 280 45 304 43 279 58 300 9 41 350 7 30 342 147 304 17 80 316 26 71 132 111 44 17 9 74 176 268 314 157 83 8 289 282 277 175 199 193 26 91 83 26 44 37 25 66 73 49 307 252 190 9 144 297 228 197 167 219 189 186 220 245 257 263 264 249 253 272 279
355 356 6 14 65 204 76 22 309 274 158 83 24 42 62 36 108 109 128 230 59 276 34 25 353 19 23 42 351 344 33 349 348 11 355 7 1 52 3 62 28 65 38 8 44 349 12 4 49 278 187 292 118 337 9 226 297 84 71 115 64 354 3 30 340 31 167 272 258 257 347 194 201 292 258 225 277 192 168 168 178 190 227 257 282 299 283 273
353 357 25 48 136 88 73 293 295 159 69 120 70 59 66 256 17 87 223 346 233 287 77 286 355 80 32 348 77 349 355 338 10 20 34 5 25 31 1 85 353 39 349 8 317 359 74 47 269 312 195 30 351 51 289 358 327 47 65 39 72 276 27 284 12 277 204 213 267 321 331 346 237 239 223 208 223 205 184 154 162 167 191 270 288 274 286 288
350 355 64 53 56 36 33 214 65 131 72 46 70 56 50 88 266 273 301 326 240 41 274 168 256 5 280 69 7 343 264 53 325 43 4 344 91 49 63 66 258 144 277 313 308 8 288 292 2 317 14 21 44 74 340 5 352 2 45 64 71 14 30 257 274 227 295 285 275 270 295 249 267 289 245 190 206 194 178 157 155 163 184 235 248 287 305 301
354 27 39 330 70 284 257 109 215 15 39 37 69 29 50 40 250 96 153 265 218 347 42 25 335 339 37 84 298 7 36 260 42 339 47 358 46 27 337 8 32 10 81 15 67 334 32 342 328 11 18 338 50 95 118 206 330 322 238 339 181 137 168 275 227 264 233 250 284 285 13 240 33 255 328 316 308 243 195 166 162 166 185 214 266 281 283 287
340 59 13 342 21 14 1 95 65 84 80 58 52 85 109 247 209 189 261 285 291 306 311 280 17 54 351 27 328 288 151 316 50 49 22 61 10 30 359 334 344 98 168 59 225 75 257 239 265 301 266 8 21 342 110 101 67 278 163 90 55 290 126 224 207 187 306 347 330 260 208 212 225 305 320 336 43 72 127 146 110 227 281 348 334 320 300 295
17 309 34 12 9 321 20 49 72 56 86 56 73 42 200 192 342 129 96 191 24 131 274 9 69 54 324 327 321 63 312 106 319 77 358 58 211 83 259 247 342 17 9 99 278 1 19 317 326 320 8 31 324 309 357 120 31 261 66 32 222 218 97 79 68 79 72 51 255 184 306 295 301 299 108 21 114 144 133 169 184 272 290 341 293 279 281 283
16 343 43 335 353 343 332 38 63 72 58 93 89 250 193 276 211 164 282 152 172 135 59 36 312 65 331 318 287 337 300 25 345 80 360 220 13 326 11 273 195 344 131 133 356 185 121 270 312 35 252 69 251 228 33 15 152 55 43 236 147 117 115 122 276 338 59 150 267 42 251 303 28 289 29 21 198 228 230 227 232 277 309 299 268 262 264 275
24 30 309 2 308 328 355 5 68 43 78 78 78 130 344 84 223 167 187 53 269 51 92 101 257 68 254 91 329 341 313 106 327 53 148 16 140 148 129 234 258 135 332 332 121 288 79 338 300 23 244 285 347 9 343 356 359 117 183 169 76 301 325 327 89 332 323 286 282 298 287 254 209 254 145 233 212 220 224 232 250 267 276 262 267 265 265 275
57 76 17 309 330 338 323 47 66 71 59 60 203 104 241 273 239 192 219 194 129 146 88 217 141 345 135 160 237 186 328 63 321 74 62 313 76 168 145 168 10 219 341 151 65 274 32 188 298 312 35 312 338 54 263 301 338 21 41 46 355 104 170 96 201 186 119 273 28 285 13 270 198 230 196 215 213 215 210 224 227 234 241 254 260 273 282 284
20 34 308 311 333 27 24 65 58 43 60 123 192 155 194 119 269 265 352 193 323 65 219 133 161 111 17 192 107 343 331 101 79 265 112 289 105 300 270 350 191 327 37 36 128 289 280 83 251 286 311 318 320 8 191 342 305 329 25 335 357 49 210 107 17 142 200 202 198 267 314 273 263 215 190 221 216 211 198 205 218 237 256 270 272 269 271 274
69 103 267 310 336 296 32 45 47 37 94 262 87 162 25 178 225 313 9 33 133 315 181 156 160 114 197 118 69 17 88 83 50 86 137 322 111 331 202 175 167 350 355 26 54 8 71 31 226 319 349 351 232 103 197 237 180 192 176 218 178 91 317 286 273 43 57 122 242 148 263 255 273 126 252 262 255 212 196 188 246 270 279 274 270 268 269 283
84 24 279 333 343 67 81 53 29 123 95 97 92 172 84 114 62 342 3 357 80 120 359 106 39 119 115 68 172 64 115 88 115 76 266 152 259 144 295 137 179 221 124 129 189 280 131 150 75 290 218 245 271 307 330 233 146 210 159 231 118 90 91 103 218 279 5 238 109 165 304 280 250 274 268 257 223 185 192 190 273 285 283 287 286 279 285 275
61 189 262 4 334 85 64 78 60 52 55 234 303 348 336 26 116 274 74 342 22 98 14 53 187 77 236 144 174 101 208 125 168 194 189 245 253 211 230 152 176 76 81 344 51 266 91 69 357 270 303 302 320 358 307 52 117 68 19 48 72 296 180 178 177 186 188 297 285 333 232 246 287 278 283 2 311 310 306 214 271 286 297 292 277 290 299 299
166 264 336 275 54 109 77 230 45 3 124 302 79 70 342 167 112 23 36 331 109 359 121 166 354 10 146 116 125 150 212 71 257 107 292 161 265 115 258 187 233 101 96 220 113 251 44 284 121 320 349 336 345 345 2 332 58 97 206 266 104 75 60 124 99 64 286 201 190 132 257 277 266 340 328 4 339 325 297 288 253 286 294 292 300 302 295 292
126 295 252 307 0 49 127 175 131 148 153 136 101 76 17 23 52 140 160 122 43 137 92 359 194 158 52 118 71 78 340 149 259 322 70 200 253 33 14 60 331 105 32 229 197 89 119 216 92 7 319 325 321 326 304 295 259 278 292 342 213 132 124 113 265 25 230 265 176 186 262 235 290 1 337 315 302 294 292 298 306 298 294 297 296 292 290 291
48 167 305 344 16 35 61 48 102 133 137 154 80 245 112 85 26 296 158 74 158 138 90 141 5 87 89 56 46 26 22 350 80 255 69 295 288 337 225 307 99 116 305 81 79 77 139 11 201 174 176 225 237 244 263 64 355 267 256 161 257 212 210 163 108 160 236 243 213 236 264 292 288 284 292 289 293 296 300 301 300 301 299 297 296 292 290 288
174 82 330 323 343 51 71 16 81 86 166 177 112 173 149 162 225 340 175 82 203 139 76 93 195 129 247 90 199 67 275 333 2 88 235 185 260 245 310 125 333 300 236 98 51 88 71 325 245 211 240 243 274 281 244 193 260 267 280 276 253 218 201 193 186 241 87 18 272 220 245 255 269 284 282 288 295 295 294 296 296 294 292 295 296 294 291 289
119 244 100 207 141 297 59 358 98 89 76 80 120 73 152 128 190 155 338 11 104 320 105 326 106 234 175 171 143 99 331 242 26 243 359 251 344 328 5 344 85 337 39 61 4 120 137 222 277 115 265 250 270 267 274 255 235 256 251 262 264 255 227 224 237 247 260 242 257 270 291 285 278 278 284 288 292 290 291 288 285 285 289 292 290 288 286 285
98 156 146 300 175 251 153 181 109 121 94 114 109 104 167 163 194 213 165 137 33 309 141 221 250 208 186 148 118 150 174 45 310 264 195 230 215 337 327 339 165 29 78 77 37 148 81 261 238 166 283 271 260 263 264 260 271 262 247 247 246 246 246 239 249 249 240 250 262 278 277 269 272 281 282 285 289 287 284 285 286 285 283 285 284 282 281 282
232 130 263 12 88 124 225 65 106 85 93 320 116 233 163 180 181 199 313 137 137 261 167 171 247 186 162 161 130 149 213 188 162 237 229 132 312 163 236 193 158 10 62 128 120 312 103 279 61 287 326 299 261 250 277 275 276 274 253 248 249 247 251 246 251 258 251 259 261 264 267 273 273 271 279 273 270 278 291 284 281 282 286 286 282 280 282 283
155 121 149 116 61 337 68 28 114 115 102 319 109 223 126 200 211 174 196 182 151 173 176 204 167 102 73 142 194 247 229 193 176 219 177 162 199 211 143 280 132 139 103 83 66 304 68 259 53 70 352 292 351 357 293 290 278 266 270 265 258 250 244 251 228 239 216 240 248 264 271 269 274 272 261 264 277 279 281 287 288 288 289 292 292 292 293 293
63 77 90 102 93 243 166 37 355 90 259 227 158 198 182 221 177 156 114 155 159 152 180 157 154 110 68 137 227 230 226 185 207 211 179 205 161 178 200 173 160 152 187 154 192 143 183 142 37 32 308 260 300 330 351 325 313 322 300 232 209 197 203 266 262 258 236 222 264 261 258 261 281 295 299 293 290 289 287 283 288 292 296 295 296 297 297 296